Tracking 28790 objects as of 18-Apr-2024
HD Live streaming from Space Station
objects crossing your sky now

TJS-9

Track TJS-9 now!


NORAD ID: 50574
Int'l Code: 2021-135A
Perigee: 35,785.9 km
Apogee: 35,802.8 km
Inclination: 0.1 °
Period: 1,436.1 minutes
Semi major axis: 42165 km
RCS: Unknown
Launch date: December 29, 2021
Source: People's Republic of China (PRC)
Launch site: Xichang Space Center, China (XSC)
Your satellite tracking list
Your tracking list is empty




NASA's NSSDC Master Catalog

Two Line Element Set (TLE):
1 50574U 21135A   24109.55355911 -.00000304  00000-0  00000+0 0  9990
2 50574   0.0890  90.3030 0002007  11.9527  81.4059  1.00269662  8545
Source of the keplerian elements: AFSPC